User: anonymous   Login
Location: Cheyres
(46.8153°N, 6.7877°E)
Time: 14:53:55
(UTC+00:00)
Language:

SPOT 5 - Orbit

View from above orbital plane
View from above orbital plane
View from above satellite
View from above satellite

Ground track
Ground track

The orbit data is extracted from the following two-line orbital elements,

1 27421U 02021A   21208.44972895  .00000031  00000-0  17817-4 0  9994
2 27421  98.2287 278.3319 0135770  40.3231 320.7938 14.52110215  3538
Epoch (UTC): 27 July 2021 10:47:36
Eccentricity: 0.0135770
inclination: 98.2287°
perigee height: 622 km
apogee height: 815 km
right ascension of ascending node: 278.3319°
argument of perigee: 40.3231°
revolutions per day: 14.52110215
mean anomaly at epoch: 320.7938°
orbit number at epoch: 353

The dashed part of the orbit path shows where the satellite is in the earth's shadow,  

DLR